owner,sensor,date,latitude,longitude,vertical_datum,mass_concentration_of_oxygen_in_sea_water,qcFlag 
DISL,ioos:station:DISL:CATA:1,2011-01-01T00:00:00Z,30.3085,-88.1395,2.82,9.11,1111122 
DISL,ioos:station:DISL:CATA:1,2011-01-01T00:30:00Z,30.3085,-88.1395,2.814,9.05,1111122 
DISL,ioos:station:DISL:CATA:1,2011-01-01T01:00:00Z,30.3085,-88.1395,2.859,9.03,1111122 
DISL,ioos:station:DISL:CATA:1,2011-01-01T01:30:00Z,30.3085,-88.1395,2.86,9.07,1111122 
DISL,ioos:station:DISL:CATA:1,2011-01-01T02:00:00Z,30.3085,-88.1395,2.885,9.11,1111122 
DISL,ioos:station:DISL:CATA:1,2011-01-01T02:30:00Z,30.3085,-88.1395,2.878,9.15,1111122 
DISL,ioos:station:DISL:CATA:1,2011-01-01T03:00:00Z,30.3085,-88.1395,2.87,9.14,1111122 
DISL,ioos:station:DISL:CATA:1,2011-01-01T03:30:00Z,30.3085,-88.1395,2.862,9.13,1111122 
DISL,ioos:station:DISL:CATA:1,2011-01-01T04:00:00Z,30.3085,-88.1395,2.841,9.01,1111122 
DISL,ioos:station:DISL:CATA:1,2011-01-01T04:30:00Z,30.3085,-88.1395,2.804,9.08,1111122 
DISL,ioos:station:DISL:CATA:1,2011-01-01T05:00:00Z,30.3085,-88.1395,2.767,9.11,1111122 
DISL,ioos:station:DISL:CATA:1,2011-01-01T05:30:00Z,30.3085,-88.1395,2.726,9.28,1111122 
DISL,ioos:station:DISL:CATA:1,2011-01-01T06:00:00Z,30.3085,-88.1395,2.677,9.6,1111122 
DISL,ioos:station:DISL:CATA:1,2011-01-01T06:30:00Z,30.3085,-88.1395,2.626,9.77,1111122 
DISL,ioos:station:DISL:CATA:1,2011-01-01T07:00:00Z,30.3085,-88.1395,2.572,9.67,1111122 
DISL,ioos:station:DISL:CATA:1,2011-01-01T07:30:00Z,30.3085,-88.1395,2.523,9.59,1111122 
DISL,ioos:station:DISL:CATA:1,2011-01-01T08:00:00Z,30.3085,-88.1395,2.48,9.56,1111122 
DISL,ioos:station:DISL:CATA:1,2011-01-01T08:30:00Z,30.3085,-88.1395,2.446,9.56,1111122 
DISL,ioos:station:DISL:CATA:1,2011-01-01T09:00:00Z,30.3085,-88.1395,2.419,9.55,1111122 
DISL,ioos:station:DISL:CATA:1,2011-01-01T09:30:00Z,30.3085,-88.1395,2.386,9.57,1111122 
DISL,ioos:station:DISL:CATA:1,2011-01-01T10:00:00Z,30.3085,-88.1395,2.354,9.55,1111122 
DISL,ioos:station:DISL:CATA:1,2011-01-01T10:30:00Z,30.3085,-88.1395,2.337,9.62,1111122 
DISL,ioos:station:DISL:CATA:1,2011-01-01T11:00:00Z,30.3085,-88.1395,2.313,9.65,1111122 
DISL,ioos:station:DISL:CATA:1,2011-01-01T11:30:00Z,30.3085,-88.1395,2.296,9.65,1111122 
DISL,ioos:station:DISL:CATA:1,2011-01-01T12:00:00Z,30.3085,-88.1395,2.283,9.66,1111122 
DISL,ioos:station:DISL:CATA:1,2011-01-01T12:30:00Z,30.3085,-88.1395,2.271,9.79,1111122 
DISL,ioos:station:DISL:CATA:1,2011-01-01T13:00:00Z,30.3085,-88.1395,2.26,9.86,1111122 
DISL,ioos:station:DISL:CATA:1,2011-01-01T13:30:00Z,30.3085,-88.1395,2.26,9.87,1111122 
DISL,ioos:station:DISL:CATA:1,2011-01-01T14:00:00Z,30.3085,-88.1395,2.285,9.9,1111122 
DISL,ioos:station:DISL:CATA:1,2011-01-01T14:30:00Z,30.3085,-88.1395,2.311,10.0,1111122 
DISL,ioos:station:DISL:CATA:1,2011-01-01T15:00:00Z,30.3085,-88.1395,2.341,10.05,1111122 
DISL,ioos:station:DISL:CATA:1,2011-01-01T15:30:00Z,30.3085,-88.1395,2.386,9.87,1111122 
DISL,ioos:station:DISL:CATA:1,2011-01-01T16:00:00Z,30.3085,-88.1395,2.382,9.71,1111122 
DISL,ioos:station:DISL:CATA:1,2011-01-01T16:30:00Z,30.3085,-88.1395,2.427,9.71,1111122 
DISL,ioos:station:DISL:CATA:1,2011-01-01T17:00:00Z,30.3085,-88.1395,2.41,9.78,1111122 
DISL,ioos:station:DISL:CATA:1,2011-01-01T17:30:00Z,30.3085,-88.1395,2.426,9.92,1111122 
DISL,ioos:station:DISL:CATA:1,2011-01-01T18:00:00Z,30.3085,-88.1395,2.457,9.92,1111122 
DISL,ioos:station:DISL:CATA:1,2011-01-01T18:30:00Z,30.3085,-88.1395,2.449,9.88,1111122 
DISL,ioos:station:DISL:CATA:1,2011-01-01T19:00:00Z,30.3085,-88.1395,2.476,9.9,1111122 
DISL,ioos:station:DISL:CATA:1,2011-01-01T19:30:00Z,30.3085,-88.1395,2.515,9.87,1111122 
DISL,ioos:station:DISL:CATA:1,2011-01-01T20:00:00Z,30.3085,-88.1395,2.575,9.75,1111122 
DISL,ioos:station:DISL:CATA:1,2011-01-01T20:30:00Z,30.3085,-88.1395,2.621,9.72,1111122 
DISL,ioos:station:DISL:CATA:1,2011-01-01T21:00:00Z,30.3085,-88.1395,2.635,9.72,1111122 
DISL,ioos:station:DISL:CATA:1,2011-01-01T21:30:00Z,30.3085,-88.1395,2.66,9.66,1111122 
DISL,ioos:station:DISL:CATA:1,2011-01-01T22:00:00Z,30.3085,-88.1395,2.691,9.61,1111122 
DISL,ioos:station:DISL:CATA:1,2011-01-01T22:30:00Z,30.3085,-88.1395,2.708,9.6,1111122 
DISL,ioos:station:DISL:CATA:1,2011-01-01T23:00:00Z,30.3085,-88.1395,2.718,9.56,1111122 
DISL,ioos:station:DISL:CATA:1,2011-01-01T23:30:00Z,30.3085,-88.1395,2.718,9.44,1111122 
DISL,ioos:station:DISL:CATA:1,2011-01-02T00:00:00Z,30.3085,-88.1395,2.703,9.41,1111122 
DISL,ioos:station:DISL:CATA:1,2011-01-02T00:30:00Z,30.3085,-88.1395,2.692,9.3,1111122 
DISL,ioos:station:DISL:CATA:1,2011-01-02T01:00:00Z,30.3085,-88.1395,2.706,9.58,1111122 
DISL,ioos:station:DISL:CATA:1,2011-01-02T01:30:00Z,30.3085,-88.1395,2.71,9.57,1111122 
DISL,ioos:station:DISL:CATA:1,2011-01-02T02:00:00Z,30.3085,-88.1395,2.713,9.54,1111122 
DISL,ioos:station:DISL:CATA:1,2011-01-02T02:30:00Z,30.3085,-88.1395,2.714,9.47,1111122 
DISL,ioos:station:DISL:CATA:1,2011-01-02T03:00:00Z,30.3085,-88.1395,2.693,9.4,1111122 
DISL,ioos:station:DISL:CATA:1,2011-01-02T03:30:00Z,30.3085,-88.1395,2.682,9.36,1111122 
DISL,ioos:station:DISL:CATA:1,2011-01-02T04:00:00Z,30.3085,-88.1395,2.662,9.41,1111122 
DISL,ioos:station:DISL:CATA:1,2011-01-02T04:30:00Z,30.3085,-88.1395,2.631,9.39,1111122 
DISL,ioos:station:DISL:CATA:1,2011-01-02T05:00:00Z,30.3085,-88.1395,2.594,9.32,1111122 
DISL,ioos:station:DISL:CATA:1,2011-01-02T05:30:00Z,30.3085,-88.1395,2.552,9.36,1111122 
DISL,ioos:station:DISL:CATA:1,2011-01-02T06:00:00Z,30.3085,-88.1395,2.507,9.38,1111122 
DISL,ioos:station:DISL:CATA:1,2011-01-02T06:30:00Z,30.3085,-88.1395,2.466,9.37,1111122 
DISL,ioos:station:DISL:CATA:1,2011-01-02T07:00:00Z,30.3085,-88.1395,2.435,9.39,1111122 
DISL,ioos:station:DISL:CATA:1,2011-01-02T07:30:00Z,30.3085,-88.1395,2.399,9.41,1111122 
DISL,ioos:station:DISL:CATA:1,2011-01-02T08:00:00Z,30.3085,-88.1395,2.371,9.56,1111122 
DISL,ioos:station:DISL:CATA:1,2011-01-02T08:30:00Z,30.3085,-88.1395,2.327,9.58,1111122 
DISL,ioos:station:DISL:CATA:1,2011-01-02T09:00:00Z,30.3085,-88.1395,2.278,9.62,1111122 
DISL,ioos:station:DISL:CATA:1,2011-01-02T09:30:00Z,30.3085,-88.1395,2.232,9.65,1111122 
DISL,ioos:station:DISL:CATA:1,2011-01-02T10:00:00Z,30.3085,-88.1395,2.201,9.7,1111122 
DISL,ioos:station:DISL:CATA:1,2011-01-02T10:30:00Z,30.3085,-88.1395,2.169,9.73,1111122 
DISL,ioos:station:DISL:CATA:1,2011-01-02T11:00:00Z,30.3085,-88.1395,2.145,9.74,1111122 
DISL,ioos:station:DISL:CATA:1,2011-01-02T11:30:00Z,30.3085,-88.1395,2.129,9.74,1111122 
DISL,ioos:station:DISL:CATA:1,2011-01-02T12:00:00Z,30.3085,-88.1395,2.109,9.75,1111122 
DISL,ioos:station:DISL:CATA:1,2011-01-02T12:30:00Z,30.3085,-88.1395,2.076,9.77,1111122 
DISL,ioos:station:DISL:CATA:1,2011-01-02T13:00:00Z,30.3085,-88.1395,2.075,9.77,1111122 
DISL,ioos:station:DISL:CATA:1,2011-01-02T13:30:00Z,30.3085,-88.1395,2.073,9.78,1111122 
DISL,ioos:station:DISL:CATA:1,2011-01-02T14:00:00Z,30.3085,-88.1395,2.079,9.82,1111122 
DISL,ioos:station:DISL:CATA:1,2011-01-02T14:30:00Z,30.3085,-88.1395,2.095,9.86,1111122 
DISL,ioos:station:DISL:CATA:1,2011-01-02T15:00:00Z,30.3085,-88.1395,2.102,9.9,1111122 
DISL,ioos:station:DISL:CATA:1,2011-01-02T15:30:00Z,30.3085,-88.1395,2.106,9.95,1111122 
DISL,ioos:station:DISL:CATA:1,2011-01-02T16:00:00Z,30.3085,-88.1395,2.146,9.98,1111122 
DISL,ioos:station:DISL:CATA:1,2011-01-02T16:30:00Z,30.3085,-88.1395,2.178,9.92,1111122 
DISL,ioos:station:DISL:CATA:1,2011-01-02T17:00:00Z,30.3085,-88.1395,2.184,9.8,1111122 
DISL,ioos:station:DISL:CATA:1,2011-01-02T17:30:00Z,30.3085,-88.1395,2.2,10.23,1111122 
DISL,ioos:station:DISL:CATA:1,2011-01-02T18:00:00Z,30.3085,-88.1395,2.232,10.56,1111122 
DISL,ioos:station:DISL:CATA:1,2011-01-02T18:30:00Z,30.3085,-88.1395,2.227,10.52,1111122 
DISL,ioos:station:DISL:CATA:1,2011-01-02T19:00:00Z,30.3085,-88.1395,2.245,10.49,1111122 
DISL,ioos:station:DISL:CATA:1,2011-01-02T19:30:00Z,30.3085,-88.1395,2.284,10.47,1111122 
DISL,ioos:station:DISL:CATA:1,2011-01-02T20:00:00Z,30.3085,-88.1395,2.326,10.39,1111122 
DISL,ioos:station:DISL:CATA:1,2011-01-02T20:30:00Z,30.3085,-88.1395,2.354,10.33,1111122 
DISL,ioos:station:DISL:CATA:1,2011-01-02T21:00:00Z,30.3085,-88.1395,2.38,10.24,1111122 
DISL,ioos:station:DISL:CATA:1,2011-01-02T21:30:00Z,30.3085,-88.1395,2.414,10.15,1111122 
DISL,ioos:station:DISL:CATA:1,2011-01-02T22:00:00Z,30.3085,-88.1395,2.447,10.08,1111122 
DISL,ioos:station:DISL:CATA:1,2011-01-02T22:30:00Z,30.3085,-88.1395,2.479,10.0,1111122 
DISL,ioos:station:DISL:CATA:1,2011-01-02T23:00:00Z,30.3085,-88.1395,2.515,9.93,1111122 
DISL,ioos:station:DISL:CATA:1,2011-01-02T23:30:00Z,30.3085,-88.1395,2.547,9.92,1111122 
DISL,ioos:station:DISL:CATA:1,2011-01-03T00:00:00Z,30.3085,-88.1395,2.585,9.87,1111122 
DISL,ioos:station:DISL:CATA:1,2011-01-03T00:30:00Z,30.3085,-88.1395,2.606,9.91,1111122 
DISL,ioos:station:DISL:CATA:1,2011-01-03T01:00:00Z,30.3085,-88.1395,2.623,9.87,1111122 
DISL,ioos:station:DISL:CATA:1,2011-01-03T01:30:00Z,30.3085,-88.1395,2.625,9.81,1111122 
DISL,ioos:station:DISL:CATA:1,2011-01-03T02:00:00Z,30.3085,-88.1395,2.642,9.66,1111122 
DISL,ioos:station:DISL:CATA:1,2011-01-03T02:30:00Z,30.3085,-88.1395,2.656,9.6,1111122 
DISL,ioos:station:DISL:CATA:1,2011-01-03T03:00:00Z,30.3085,-88.1395,2.663,9.55,1111122 
DISL,ioos:station:DISL:CATA:1,2011-01-03T03:30:00Z,30.3085,-88.1395,2.666,9.52,1111122 
DISL,ioos:station:DISL:CATA:1,2011-01-03T04:00:00Z,30.3085,-88.1395,2.634,9.51,1111122 
DISL,ioos:station:DISL:CATA:1,2011-01-03T04:30:00Z,30.3085,-88.1395,2.609,9.36,1111122 
DISL,ioos:station:DISL:CATA:1,2011-01-03T05:00:00Z,30.3085,-88.1395,2.581,9.27,1111122 
DISL,ioos:station:DISL:CATA:1,2011-01-03T05:30:00Z,30.3085,-88.1395,2.551,9.38,1111122 
DISL,ioos:station:DISL:CATA:1,2011-01-03T06:00:00Z,30.3085,-88.1395,2.515,9.67,1111122 
DISL,ioos:station:DISL:CATA:1,2011-01-03T06:30:00Z,30.3085,-88.1395,2.471,9.86,1111122 
DISL,ioos:station:DISL:CATA:1,2011-01-03T07:00:00Z,30.3085,-88.1395,2.435,9.92,1111122 
DISL,ioos:station:DISL:CATA:1,2011-01-03T07:30:00Z,30.3085,-88.1395,2.4,9.91,1111122 
DISL,ioos:station:DISL:CATA:1,2011-01-03T08:00:00Z,30.3085,-88.1395,2.351,9.89,1111122 
DISL,ioos:station:DISL:CATA:1,2011-01-03T08:30:00Z,30.3085,-88.1395,2.31,9.9,1111122 
DISL,ioos:station:DISL:CATA:1,2011-01-03T09:00:00Z,30.3085,-88.1395,2.26,9.87,1111122 
DISL,ioos:station:DISL:CATA:1,2011-01-03T09:30:00Z,30.3085,-88.1395,2.218,9.85,1111122 
DISL,ioos:station:DISL:CATA:1,2011-01-03T10:00:00Z,30.3085,-88.1395,2.188,9.85,1111122 
DISL,ioos:station:DISL:CATA:1,2011-01-03T10:30:00Z,30.3085,-88.1395,2.146,9.89,1111122 
DISL,ioos:station:DISL:CATA:1,2011-01-03T11:00:00Z,30.3085,-88.1395,2.118,9.87,1111122 
DISL,ioos:station:DISL:CATA:1,2011-01-03T11:30:00Z,30.3085,-88.1395,2.087,9.88,1111122 
DISL,ioos:station:DISL:CATA:1,2011-01-03T12:00:00Z,30.3085,-88.1395,2.062,9.89,1111122 
DISL,ioos:station:DISL:CATA:1,2011-01-03T12:30:00Z,30.3085,-88.1395,2.046,9.92,1111122 
DISL,ioos:station:DISL:CATA:1,2011-01-03T13:00:00Z,30.3085,-88.1395,2.027,9.96,1111122 
DISL,ioos:station:DISL:CATA:1,2011-01-03T13:30:00Z,30.3085,-88.1395,2.021,10.07,1111122 
DISL,ioos:station:DISL:CATA:1,2011-01-03T14:00:00Z,30.3085,-88.1395,2.015,10.12,1111122 
DISL,ioos:station:DISL:CATA:1,2011-01-03T14:30:00Z,30.3085,-88.1395,2.005,10.13,1111122 
DISL,ioos:station:DISL:CATA:1,2011-01-03T15:00:00Z,30.3085,-88.1395,2.006,10.17,1111122 
DISL,ioos:station:DISL:CATA:1,2011-01-03T15:30:00Z,30.3085,-88.1395,2.03,10.23,1111122 
DISL,ioos:station:DISL:CATA:1,2011-01-03T16:00:00Z,30.3085,-88.1395,2.061,10.28,1111122 
DISL,ioos:station:DISL:CATA:1,2011-01-03T16:30:00Z,30.3085,-88.1395,2.085,10.29,1111122 
DISL,ioos:station:DISL:CATA:1,2011-01-03T17:00:00Z,30.3085,-88.1395,2.106,10.22,1111122 
DISL,ioos:station:DISL:CATA:1,2011-01-03T17:30:00Z,30.3085,-88.1395,2.14,10.14,1111122 
DISL,ioos:station:DISL:CATA:1,2011-01-03T18:00:00Z,30.3085,-88.1395,2.161,10.19,1111122 
DISL,ioos:station:DISL:CATA:1,2011-01-03T18:30:00Z,30.3085,-88.1395,2.179,10.9,1111122 
DISL,ioos:station:DISL:CATA:1,2011-01-03T19:00:00Z,30.3085,-88.1395,2.201,10.84,1111122 
DISL,ioos:station:DISL:CATA:1,2011-01-03T19:30:00Z,30.3085,-88.1395,2.227,10.86,1111122 
DISL,ioos:station:DISL:CATA:1,2011-01-03T20:00:00Z,30.3085,-88.1395,2.255,10.88,1111122 
DISL,ioos:station:DISL:CATA:1,2011-01-03T20:30:00Z,30.3085,-88.1395,2.291,11.04,1111122 
DISL,ioos:station:DISL:CATA:1,2011-01-03T21:00:00Z,30.3085,-88.1395,2.327,10.87,1111122 
DISL,ioos:station:DISL:CATA:1,2011-01-03T21:30:00Z,30.3085,-88.1395,2.367,10.79,1111122 
DISL,ioos:station:DISL:CATA:1,2011-01-03T22:00:00Z,30.3085,-88.1395,2.41,10.64,1111122 
DISL,ioos:station:DISL:CATA:1,2011-01-03T22:30:00Z,30.3085,-88.1395,2.434,10.58,1111122 
DISL,ioos:station:DISL:CATA:1,2011-01-03T23:00:00Z,30.3085,-88.1395,2.48,10.44,1111122 
DISL,ioos:station:DISL:CATA:1,2011-01-03T23:30:00Z,30.3085,-88.1395,2.513,10.25,1111122 
DISL,ioos:station:DISL:CATA:1,2011-01-04T00:00:00Z,30.3085,-88.1395,2.55,10.17,1111122 
DISL,ioos:station:DISL:CATA:1,2011-01-04T00:30:00Z,30.3085,-88.1395,2.588,10.1,1111122 
DISL,ioos:station:DISL:CATA:1,2011-01-04T01:00:00Z,30.3085,-88.1395,2.627,10.04,1111122 
DISL,ioos:station:DISL:CATA:1,2011-01-04T01:30:00Z,30.3085,-88.1395,2.657,10.02,1111122 
DISL,ioos:station:DISL:CATA:1,2011-01-04T02:00:00Z,30.3085,-88.1395,2.672,10.0,1111122 
DISL,ioos:station:DISL:CATA:1,2011-01-04T02:30:00Z,30.3085,-88.1395,2.696,9.93,1111122 
DISL,ioos:station:DISL:CATA:1,2011-01-04T03:00:00Z,30.3085,-88.1395,2.715,9.9,1111122 
DISL,ioos:station:DISL:CATA:1,2011-01-04T03:30:00Z,30.3085,-88.1395,2.716,9.9,1111122 
DISL,ioos:station:DISL:CATA:1,2011-01-04T04:00:00Z,30.3085,-88.1395,2.705,9.92,1111122 
DISL,ioos:station:DISL:CATA:1,2011-01-04T04:30:00Z,30.3085,-88.1395,2.694,9.9,1111122 
DISL,ioos:station:DISL:CATA:1,2011-01-04T05:00:00Z,30.3085,-88.1395,2.675,9.85,1111122 
DISL,ioos:station:DISL:CATA:1,2011-01-04T05:30:00Z,30.3085,-88.1395,2.645,9.81,1111122 
DISL,ioos:station:DISL:CATA:1,2011-01-04T06:00:00Z,30.3085,-88.1395,2.613,9.74,1111122 
DISL,ioos:station:DISL:CATA:1,2011-01-04T06:30:00Z,30.3085,-88.1395,2.576,9.9,1111122 
DISL,ioos:station:DISL:CATA:1,2011-01-04T07:00:00Z,30.3085,-88.1395,2.553,9.96,1111122 
DISL,ioos:station:DISL:CATA:1,2011-01-04T07:30:00Z,30.3085,-88.1395,2.515,10.1,1111122 
DISL,ioos:station:DISL:CATA:1,2011-01-04T08:00:00Z,30.3085,-88.1395,2.474,10.3,1111122 
DISL,ioos:station:DISL:CATA:1,2011-01-04T08:30:00Z,30.3085,-88.1395,2.435,10.24,1111122 
DISL,ioos:station:DISL:CATA:1,2011-01-04T09:00:00Z,30.3085,-88.1395,2.387,10.08,1111122 
DISL,ioos:station:DISL:CATA:1,2011-01-04T09:30:00Z,30.3085,-88.1395,2.342,9.98,1111122 
DISL,ioos:station:DISL:CATA:1,2011-01-04T10:00:00Z,30.3085,-88.1395,2.295,9.81,1111122 
DISL,ioos:station:DISL:CATA:1,2011-01-04T10:30:00Z,30.3085,-88.1395,2.247,9.65,1111122 
DISL,ioos:station:DISL:CATA:1,2011-01-04T11:00:00Z,30.3085,-88.1395,2.211,9.63,1111122 
DISL,ioos:station:DISL:CATA:1,2011-01-04T11:30:00Z,30.3085,-88.1395,2.171,9.62,1111122 
DISL,ioos:station:DISL:CATA:1,2011-01-04T12:00:00Z,30.3085,-88.1395,2.15,9.68,1111122 
DISL,ioos:station:DISL:CATA:1,2011-01-04T12:30:00Z,30.3085,-88.1395,2.129,9.83,1111122 
DISL,ioos:station:DISL:CATA:1,2011-01-04T13:00:00Z,30.3085,-88.1395,2.105,9.81,1111122 
DISL,ioos:station:DISL:CATA:1,2011-01-04T13:30:00Z,30.3085,-88.1395,2.107,9.79,1111122 
DISL,ioos:station:DISL:CATA:1,2011-01-04T14:00:00Z,30.3085,-88.1395,2.113,9.8,1111122 
DISL,ioos:station:DISL:CATA:1,2011-01-04T14:30:00Z,30.3085,-88.1395,2.117,9.92,1111122 
DISL,ioos:station:DISL:CATA:1,2011-01-04T15:00:00Z,30.3085,-88.1395,2.131,10.07,1111122 
DISL,ioos:station:DISL:CATA:1,2011-01-04T15:30:00Z,30.3085,-88.1395,2.131,10.13,1111122 
DISL,ioos:station:DISL:CATA:1,2011-01-04T16:00:00Z,30.3085,-88.1395,2.134,10.2,1111122 
DISL,ioos:station:DISL:CATA:1,2011-01-04T16:30:00Z,30.3085,-88.1395,2.136,10.25,1111122 
DISL,ioos:station:DISL:CATA:1,2011-01-04T17:00:00Z,30.3085,-88.1395,2.155,10.31,1111122 
DISL,ioos:station:DISL:CATA:1,2011-01-04T17:30:00Z,30.3085,-88.1395,2.166,10.33,1111122 
DISL,ioos:station:DISL:CATA:1,2011-01-04T18:00:00Z,30.3085,-88.1395,2.178,10.4,1111122 
DISL,ioos:station:DISL:CATA:1,2011-01-04T18:30:00Z,30.3085,-88.1395,2.19,10.67,1111122 
DISL,ioos:station:DISL:CATA:1,2011-01-04T19:00:00Z,30.3085,-88.1395,2.197,10.77,1111122 
DISL,ioos:station:DISL:CATA:1,2011-01-04T19:30:00Z,30.3085,-88.1395,2.215,10.85,1111122 
DISL,ioos:station:DISL:CATA:1,2011-01-04T20:00:00Z,30.3085,-88.1395,2.238,10.97,1111122 
DISL,ioos:station:DISL:CATA:1,2011-01-04T20:30:00Z,30.3085,-88.1395,2.249,11.06,1111122 
DISL,ioos:station:DISL:CATA:1,2011-01-04T21:00:00Z,30.3085,-88.1395,2.273,11.28,1111122 
DISL,ioos:station:DISL:CATA:1,2011-01-04T21:30:00Z,30.3085,-88.1395,2.303,11.18,1111122 
DISL,ioos:station:DISL:CATA:1,2011-01-04T22:00:00Z,30.3085,-88.1395,2.337,11.22,1111122 
DISL,ioos:station:DISL:CATA:1,2011-01-04T22:30:00Z,30.3085,-88.1395,2.369,11.11,1111122 
DISL,ioos:station:DISL:CATA:1,2011-01-04T23:00:00Z,30.3085,-88.1395,2.399,10.99,1111122 
DISL,ioos:station:DISL:CATA:1,2011-01-04T23:30:00Z,30.3085,-88.1395,2.431,10.89,1111122 
DISL,ioos:station:DISL:CATA:1,2011-01-05T00:00:00Z,30.3085,-88.1395,2.471,10.86,1111122 
DISL,ioos:station:DISL:CATA:1,2011-01-05T00:30:00Z,30.3085,-88.1395,2.507,10.99,1111122 
DISL,ioos:station:DISL:CATA:1,2011-01-05T01:00:00Z,30.3085,-88.1395,2.539,10.97,1111122 
DISL,ioos:station:DISL:CATA:1,2011-01-05T01:30:00Z,30.3085,-88.1395,2.575,10.83,1111122 
DISL,ioos:station:DISL:CATA:1,2011-01-05T02:00:00Z,30.3085,-88.1395,2.604,10.71,1111122 
DISL,ioos:station:DISL:CATA:1,2011-01-05T02:30:00Z,30.3085,-88.1395,2.625,10.65,1111122 
DISL,ioos:station:DISL:CATA:1,2011-01-05T03:00:00Z,30.3085,-88.1395,2.644,10.49,1111122 
DISL,ioos:station:DISL:CATA:1,2011-01-05T03:30:00Z,30.3085,-88.1395,2.658,10.52,1111122 
DISL,ioos:station:DISL:CATA:1,2011-01-05T04:00:00Z,30.3085,-88.1395,2.647,10.54,1111122 
DISL,ioos:station:DISL:CATA:1,2011-01-05T04:30:00Z,30.3085,-88.1395,2.632,10.55,1111122 
DISL,ioos:station:DISL:CATA:1,2011-01-05T05:00:00Z,30.3085,-88.1395,2.613,10.52,1111122 
DISL,ioos:station:DISL:CATA:1,2011-01-05T05:30:00Z,30.3085,-88.1395,2.586,10.38,1111122 
DISL,ioos:station:DISL:CATA:1,2011-01-05T06:00:00Z,30.3085,-88.1395,2.576,10.34,1111122 
DISL,ioos:station:DISL:CATA:1,2011-01-05T06:30:00Z,30.3085,-88.1395,2.536,10.45,1111122 
DISL,ioos:station:DISL:CATA:1,2011-01-05T07:00:00Z,30.3085,-88.1395,2.507,10.91,1111122 
DISL,ioos:station:DISL:CATA:1,2011-01-05T07:30:00Z,30.3085,-88.1395,2.484,11.28,1111122 
DISL,ioos:station:DISL:CATA:1,2011-01-05T08:00:00Z,30.3085,-88.1395,2.445,10.87,1111122 
DISL,ioos:station:DISL:CATA:1,2011-01-05T08:30:00Z,30.3085,-88.1395,2.4,11.03,1111122 
DISL,ioos:station:DISL:CATA:1,2011-01-05T09:00:00Z,30.3085,-88.1395,2.353,10.94,1111122 
DISL,ioos:station:DISL:CATA:1,2011-01-05T09:30:00Z,30.3085,-88.1395,2.31,11.03,1111122 
DISL,ioos:station:DISL:CATA:1,2011-01-05T10:00:00Z,30.3085,-88.1395,2.268,10.96,1111122 
DISL,ioos:station:DISL:CATA:1,2011-01-05T10:30:00Z,30.3085,-88.1395,2.224,10.87,1111122 
DISL,ioos:station:DISL:CATA:1,2011-01-05T11:00:00Z,30.3085,-88.1395,2.189,10.94,1111122 
DISL,ioos:station:DISL:CATA:1,2011-01-05T11:30:00Z,30.3085,-88.1395,2.154,10.87,1111122 
DISL,ioos:station:DISL:CATA:1,2011-01-05T12:00:00Z,30.3085,-88.1395,2.124,10.86,1111122 
DISL,ioos:station:DISL:CATA:1,2011-01-05T12:30:00Z,30.3085,-88.1395,2.103,10.88,1111122 
DISL,ioos:station:DISL:CATA:1,2011-01-05T13:00:00Z,30.3085,-88.1395,2.095,10.9,1111122 
DISL,ioos:station:DISL:CATA:1,2011-01-05T13:30:00Z,30.3085,-88.1395,2.102,10.91,1111122 
DISL,ioos:station:DISL:CATA:1,2011-01-05T14:00:00Z,30.3085,-88.1395,2.118,10.85,1111122 
DISL,ioos:station:DISL:CATA:1,2011-01-05T14:30:00Z,30.3085,-88.1395,2.186,10.74,1111122 
DISL,ioos:station:DISL:CATA:1,2011-01-05T15:00:00Z,30.3085,-88.1395,2.19,10.59,1111122 
DISL,ioos:station:DISL:CATA:1,2011-01-05T15:30:00Z,30.3085,-88.1395,2.11,10.64,1111122 
DISL,ioos:station:DISL:CATA:1,2011-01-05T16:00:00Z,30.3085,-88.1395,2.114,10.27,1111122 
DISL,ioos:station:DISL:CATA:1,2011-01-05T16:30:00Z,30.3085,-88.1395,2.139,10.64,1111122 
DISL,ioos:station:DISL:CATA:1,2011-01-05T17:00:00Z,30.3085,-88.1395,2.13,10.63,1111122 
DISL,ioos:station:DISL:CATA:1,2011-01-05T17:30:00Z,30.3085,-88.1395,2.119,10.72,1111122 
DISL,ioos:station:DISL:CATA:1,2011-01-05T18:00:00Z,30.3085,-88.1395,2.094,10.99,1111122 
DISL,ioos:station:DISL:CATA:1,2011-01-05T18:30:00Z,30.3085,-88.1395,2.102,11.02,1111122 
DISL,ioos:station:DISL:CATA:1,2011-01-05T19:00:00Z,30.3085,-88.1395,2.125,10.95,1111122 
DISL,ioos:station:DISL:CATA:1,2011-01-05T19:30:00Z,30.3085,-88.1395,2.172,11.13,1111122 
DISL,ioos:station:DISL:CATA:1,2011-01-05T20:00:00Z,30.3085,-88.1395,2.203,11.17,1111122 
DISL,ioos:station:DISL:CATA:1,2011-01-05T20:30:00Z,30.3085,-88.1395,2.236,11.04,1111122 
DISL,ioos:station:DISL:CATA:1,2011-01-05T21:00:00Z,30.3085,-88.1395,2.26,11.01,1111122 
DISL,ioos:station:DISL:CATA:1,2011-01-05T21:30:00Z,30.3085,-88.1395,2.266,10.93,1111122 
DISL,ioos:station:DISL:CATA:1,2011-01-05T22:00:00Z,30.3085,-88.1395,2.297,10.91,1111122 
DISL,ioos:station:DISL:CATA:1,2011-01-05T22:30:00Z,30.3085,-88.1395,2.321,10.83,1111122 
DISL,ioos:station:DISL:CATA:1,2011-01-05T23:00:00Z,30.3085,-88.1395,2.344,10.82,1111122 
DISL,ioos:station:DISL:CATA:1,2011-01-05T23:30:00Z,30.3085,-88.1395,2.367,10.81,1111122 
DISL,ioos:station:DISL:CATA:1,2011-01-06T00:00:00Z,30.3085,-88.1395,2.406,10.75,1111122 
DISL,ioos:station:DISL:CATA:1,2011-01-06T00:30:00Z,30.3085,-88.1395,2.442,10.74,1111122 
DISL,ioos:station:DISL:CATA:1,2011-01-06T01:00:00Z,30.3085,-88.1395,2.484,10.64,1111122 
DISL,ioos:station:DISL:CATA:1,2011-01-06T01:30:00Z,30.3085,-88.1395,2.521,10.5,1111122 
DISL,ioos:station:DISL:CATA:1,2011-01-06T02:00:00Z,30.3085,-88.1395,2.555,10.43,1111122 
DISL,ioos:station:DISL:CATA:1,2011-01-06T02:30:00Z,30.3085,-88.1395,2.593,10.37,1111122 
DISL,ioos:station:DISL:CATA:1,2011-01-06T03:00:00Z,30.3085,-88.1395,2.607,10.4,1111122 
DISL,ioos:station:DISL:CATA:1,2011-01-06T03:30:00Z,30.3085,-88.1395,2.613,10.39,1111122 
DISL,ioos:station:DISL:CATA:1,2011-01-06T04:00:00Z,30.3085,-88.1395,2.626,10.37,1111122 
DISL,ioos:station:DISL:CATA:1,2011-01-06T04:30:00Z,30.3085,-88.1395,2.639,10.38,1111122 
DISL,ioos:station:DISL:CATA:1,2011-01-06T05:00:00Z,30.3085,-88.1395,2.615,10.31,1111122 
DISL,ioos:station:DISL:CATA:1,2011-01-06T05:30:00Z,30.3085,-88.1395,2.586,10.28,1111122 
DISL,ioos:station:DISL:CATA:1,2011-01-06T06:00:00Z,30.3085,-88.1395,2.555,9.96,1111122 
DISL,ioos:station:DISL:CATA:1,2011-01-06T06:30:00Z,30.3085,-88.1395,2.549,9.92,1111122 
DISL,ioos:station:DISL:CATA:1,2011-01-06T07:00:00Z,30.3085,-88.1395,2.524,10.1,1111122 
DISL,ioos:station:DISL:CATA:1,2011-01-06T07:30:00Z,30.3085,-88.1395,2.531,10.5,1111122 
DISL,ioos:station:DISL:CATA:1,2011-01-06T08:00:00Z,30.3085,-88.1395,2.497,10.47,1111122 
DISL,ioos:station:DISL:CATA:1,2011-01-06T08:30:00Z,30.3085,-88.1395,2.451,10.26,1111122 
DISL,ioos:station:DISL:CATA:1,2011-01-06T09:00:00Z,30.3085,-88.1395,2.409,10.13,1111122 
DISL,ioos:station:DISL:CATA:1,2011-01-06T09:30:00Z,30.3085,-88.1395,2.368,10.24,1111122 
DISL,ioos:station:DISL:CATA:1,2011-01-06T10:00:00Z,30.3085,-88.1395,2.33,10.36,1111122 
DISL,ioos:station:DISL:CATA:1,2011-01-06T10:30:00Z,30.3085,-88.1395,2.27,10.39,1111122 
DISL,ioos:station:DISL:CATA:1,2011-01-06T11:00:00Z,30.3085,-88.1395,2.216,10.37,1111122 
DISL,ioos:station:DISL:CATA:1,2011-01-06T11:30:00Z,30.3085,-88.1395,2.183,10.28,1111122 
DISL,ioos:station:DISL:CATA:1,2011-01-06T12:00:00Z,30.3085,-88.1395,2.16,10.22,1111122 
DISL,ioos:station:DISL:CATA:1,2011-01-06T12:30:00Z,30.3085,-88.1395,2.135,10.21,1111122 
DISL,ioos:station:DISL:CATA:1,2011-01-06T13:00:00Z,30.3085,-88.1395,2.136,10.21,1111122 
DISL,ioos:station:DISL:CATA:1,2011-01-06T13:30:00Z,30.3085,-88.1395,2.134,10.27,1111122 
DISL,ioos:station:DISL:CATA:1,2011-01-06T14:00:00Z,30.3085,-88.1395,2.136,10.43,1111122 
DISL,ioos:station:DISL:CATA:1,2011-01-06T14:30:00Z,30.3085,-88.1395,2.153,10.52,1111122 